Location: Ch�tillon
(48.8024°N, 2.2935°E)
Time: 07:39:34
(UTC+00:00)

LO-87 - Pass Details

Date: 07 July 2022
Orbit: 450 x 466 km, 97.4° (Epoch: 17 August)

Event Time Altitude Azimuth Distance (km) Brightness Sun altitude
Exits shadow 23:20:59 55° 172° (S) 564 ? -18.3°
Maximum altitude 23:21:40 86° 256° (WSW) 473 ? -18.3°
Drops below altitude 10° 23:25:12 10° 346° (NNW) 1,636 ? -18.4°
Sets 23:27:16 0° 347° (NNW) 2,521 ? -18.4°
